Location: The Saddle
(36.8333°N, 80.3417°W)
Time: 10:07:27
(UTC-05:00)

SR - Pass Details

Date: 11 December 2023
Orbit: 574 x 867 km, 66.7° (Epoch: 03 March)

Event Time Altitude Azimuth Distance (km) Brightness Sun altitude
Rises 20:18:42 0° 319° (NW) 3,402 ? -37.9°
Reaches altitude 10° 20:21:35 10° 307° (NW) 2,429 ? -38.4°
Enters shadow 20:25:02 24° 272° (W) 1,614 ? -39.1°
